Tracking 22440 objects as of 27-Feb-2021
HD Live streaming from Space Station
objects crossing your sky now

FREGAT DEB

Track FREGAT DEB now!
10-day predictions


NORAD ID: 45822
Int'l Code: 2011-037BG
Perigee: 537.9 km
Apogee: 3,380.5 km
Inclination: 51.5 °
Period: 126.1 minutes
Semi major axis: 8330 km
RCS: Unknown
Launch date: July 18, 2011
Source: Commonwealth of Independent States (former USSR) (CIS)
Launch site: TYURATAM MISSILE AND SPACE COMPLEX (TTMTR)

Note: This is SATELLITE DEBRIS
aabbcc
Your satellite tracking list
Your tracking list is empty




NASA's NSSDC Master Catalog

Two Line Element Set (TLE):
1 45822U 11037BG  21057.37834616  .00001563  00000-0  83285-3 0  9990
2 45822  51.5120  55.6947 1706204 198.2390 154.9148 11.41878538 30668
Source of the keplerian elements: AFSPC